GFSCGP_con_lsi_078.txt.gz
Lid_Strength_Index
11 14 15 13 13 13 14 15 15 14 11 11 12 12 10 10 9 9 8 8 7 6 5 4 3 3 2 2 2 2 2 2 2 2 3 3 3 2 2 2 2 3 3 3
13 14 11 11 12 12 13 15 15 13 11 11 12 12 11 9 9 8 8 8 7 7 5 4 4 3 2 2 2 2 2 3 3 3 2 2 3 3 2 2 2 2 3 3
13 12 10 11 13 13 13 14 14 15 13 12 13 14 12 10 8 8 7 7 7 6 6 5 4 4 3 3 2 2 2 2 2 2 3 3 3 3 4 4 3 3 2 2
12 10 11 12 13 12 15 12 12 14 15 17 13 18 13 12 10 9 8 7 7 6 5 5 5 5 3 3 2 2 2 2 2 2 3 4 4 4 3 3 3 2 2 1
13 12 12 13 12 12 13 11 13 13 15 16 15 17 14 12 11 10 8 7 7 6 6 5 5 5 4 2 3 3 3 3 2 3 3 3 4 3 3 3 3 3 2 2
12 10 10 11 10 11 10 12 13 13 15 19 15 15 15 13 11 10 8 8 7 6 6 5 5 6 5 3 3 4 3 3 2 3 4 3 4 4 4 4 3 3 3 2
12 12 11 9 12 11 12 14 18 19 19 19 14 16 13 11 10 9 9 9 8 6 6 5 6 6 6 5 4 4 4 4 3 3 3 3 3 4 3 4 3 3 3 3
15 16 11 10 10 12 13 14 18 20 20 18 14 17 13 9 8 8 8 8 8 6 6 5 5 6 6 5 4 4 4 3 3 3 3 2 3 2 2 3 3 3 2 2
15 15 10 9 9 10 13 14 12 16 17 19 16 14 11 9 9 9 9 9 8 7 6 5 5 5 5 5 5 4 4 3 3 3 3 2 2 3 3 3 3 2 3 2
11 15 11 10 9 9 11 10 15 15 21 22 18 17 15 11 10 10 10 9 8 6 6 5 5 5 5 5 5 5 4 4 3 3 3 2 2 2 2 3 3 3 3 3
11 12 13 10 12 13 13 13 13 13 15 18 20 17 11 10 10 10 10 10 8 7 6 5 5 4 5 6 6 6 5 5 5 4 4 3 3 2 2 1 2 2 2 2
10 12 15 13 10 10 11 12 12 16 18 16 17 16 10 9 10 10 10 9 8 6 6 5 5 4 5 6 6 6 6 5 5 4 4 3 3 2 2 2 2 1 2 2
10 14 16 14 12 11 12 12 11 12 13 17 18 16 9 9 10 9 9 9 9 7 6 6 5 5 5 5 5 6 6 6 5 4 3 3 3 3 3 2 1 2 2 2
8 13 14 16 15 13 14 12 11 11 16 16 16 14 11 9 10 9 9 9 9 8 7 7 6 5 5 4 4 5 5 4 4 4 4 4 3 2 2 3 3 3 2 2
10 15 13 12 11 11 12 12 11 12 13 15 14 13 10 9 9 8 9 9 9 9 8 8 7 6 5 5 4 4 4 4 4 3 4 4 3 3 3 4 3 4 3 3
9 15 13 14 11 11 12 11 12 12 12 13 13 13 9 8 8 9 8 9 9 9 8 8 7 7 6 5 5 5 5 4 4 4 3 3 4 4 4 5 5 5 6 6
12 13 15 17 13 13 16 12 12 12 11 11 15 12 9 9 9 9 8 9 9 9 8 7 6 5 4 5 5 5 5 6 4 4 4 5 6 7 7 7 8 8 9 9
12 13 14 17 15 21 13 9 9 11 10 10 10 10 9 8 8 8 8 8 8 8 8 8 7 5 5 5 6 5 4 5 5 6 6 7 7 8 8 8 9 10 9 9
9 12 15 18 18 15 12 11 11 12 12 9 10 9 8 8 10 10 9 8 7 7 7 8 7 5 5 5 5 5 5 6 6 7 8 8 8 9 9 10 10 10 10 10
9 10 14 16 19 21 13 9 7 8 15 8 8 9 9 10 13 11 9 8 7 8 7 6 5 5 5 5 5 6 6 7 8 8 8 8 8 9 9 10 10 10 10 10
14 14 16 17 18 15 10 8 7 16 14 8 7 8 9 11 10 8 8 8 7 6 6 5 5 5 5 5 5 6 7 8 8 8 9 9 9 9 9 9 10 10 12 13
15 16 16 15 17 19 8 9 13 10 8 7 7 7 7 7 7 8 8 7 6 6 5 5 6 6 5 5 5 7 8 7 8 9 10 10 9 8 9 10 11 11 13 14
14 12 14 13 14 9 7 8 7 6 7 7 7 7 7 7 8 8 7 6 6 6 5 6 7 7 7 7 7 8 8 9 9 9 9 9 10 10 10 11 12 13 14 15
11 9 12 12 10 9 8 7 6 6 6 6 6 6 6 7 7 8 8 7 7 7 7 7 7 8 9 9 9 9 9 8 9 11 11 11 12 13 13 13 13 13 14 15
11 9 11 11 9 8 7 7 6 6 6 6 6 6 6 7 7 7 7 8 8 8 9 9 10 10 10 10 10 10 10 10 11 12 13 14 14 15 16 16 15 15 15 14
9 11 12 13 9 9 8 6 5 6 6 5 6 6 6 7 7 8 8 8 9 10 11 12 12 13 13 14 13 12 12 12 13 15 16 16 16 16 17 17 17 15 15 15

GFSCGP_con_lsi_081.txt.gz
Lid_Strength_Index
9 11 13 11 10 11 12 13 13 12 10 11 11 11 9 7 7 7 7 7 6 6 4 3 3 3 2 1 1 2 2 2 2 2 2 2 3 2 2 2 2 2 2 2
11 13 10 10 10 11 12 13 13 11 10 11 11 11 9 8 6 7 7 7 6 6 5 4 3 3 3 2 2 2 2 2 2 2 2 2 2 2 2 2 2 2 1 2
12 11 9 10 11 12 12 12 12 13 12 10 11 12 10 8 7 6 6 6 5 6 6 5 4 3 3 2 2 2 2 2 2 2 2 2 3 2 2 2 3 1 1 2
11 9 10 11 12 11 13 11 11 12 13 15 11 15 11 9 8 7 7 6 6 6 5 4 4 4 3 2 2 1 2 2 2 2 3 3 3 3 3 3 2 2 1 1
11 10 11 11 11 10 12 10 11 11 13 13 13 14 12 10 9 7 6 6 6 5 5 5 4 3 3 2 2 1 1 1 1 2 2 2 3 2 2 2 2 1 0 0
10 8 9 10 9 9 9 11 11 12 13 16 14 13 13 10 9 7 6 5 6 5 5 4 3 3 4 2 2 2 2 1 1 1 1 2 2 1 2 2 1 1 0 -0
12 11 9 8 10 9 10 12 16 17 17 17 12 13 12 9 8 7 6 6 5 5 5 5 4 4 5 4 2 2 2 2 1 1 1 1 1 1 1 1 1 1 1 1
15 16 10 8 9 10 10 11 15 19 18 16 12 15 12 8 6 6 6 6 6 5 5 5 4 4 4 4 2 2 2 2 1 1 2 2 1 1 1 1 1 1 1 0
14 14 10 9 7 8 11 13 10 14 15 17 14 12 9 8 8 7 6 7 6 5 5 5 4 4 3 4 3 2 2 2 1 1 1 1 1 1 1 1 0 0 0 0
10 13 9 9 8 7 9 8 14 13 18 19 15 15 12 10 8 7 7 6 6 5 5 5 4 4 3 3 3 2 2 2 1 1 1 1 1 0 0 0 1 0 0 -0
9 11 12 9 10 11 10 11 11 11 13 16 18 15 9 9 8 8 7 7 7 5 5 5 4 3 3 3 3 3 2 2 2 1 1 1 1 0 0 0 0 0 -0 -0
9 11 13 11 8 8 8 10 10 15 16 14 14 14 8 7 7 7 7 7 7 5 5 4 4 3 3 3 4 4 3 3 2 2 2 2 1 1 1 2 1 -0 0 -0
9 13 16 13 10 9 10 9 9 10 12 14 17 14 8 8 7 7 7 6 6 6 5 5 4 4 4 3 4 4 4 3 3 3 3 3 3 3 2 2 2 0 0 0
7 12 15 17 14 11 12 11 10 11 14 14 14 12 9 8 8 7 7 6 6 6 5 5 4 4 4 3 3 4 4 3 3 4 3 3 3 2 2 2 1 0 0 0
9 13 12 12 11 11 12 11 10 12 11 14 12 11 9 8 7 6 7 6 7 7 6 5 5 4 4 3 3 3 3 4 3 3 3 3 2 3 2 1 1 0 1 0
8 14 13 14 11 12 13 11 10 10 10 11 11 11 7 6 6 6 7 7 7 6 7 6 5 4 4 4 3 3 3 3 3 3 3 2 2 2 2 2 2 2 2 2
11 13 15 16 13 14 15 12 10 10 9 10 12 9 7 8 7 7 7 7 7 6 6 6 5 4 4 3 3 3 2 2 3 3 3 2 2 3 2 2 3 3 3 5
11 12 14 16 15 21 12 8 8 10 9 8 9 8 7 7 6 6 5 6 7 7 6 6 6 5 3 3 3 2 2 2 2 2 2 2 2 4 6 6 6 8 8 9
8 11 15 17 18 15 12 10 10 11 11 8 8 7 7 6 7 6 6 6 7 6 5 5 5 5 3 3 3 3 3 3 3 3 4 5 5 7 7 8 9 10 10 10
9 9 14 16 18 20 13 9 7 7 14 8 7 8 7 8 10 8 7 6 6 6 6 6 5 4 3 3 3 3 4 4 5 6 6 6 6 7 9 10 10 10 10 11
14 13 15 15 17 14 9 8 7 14 13 7 7 7 7 8 7 6 6 6 6 4 5 4 4 4 3 3 3 4 5 6 6 7 7 8 8 10 10 10 10 12 12 13
14 15 16 15 17 18 8 8 12 9 7 7 6 6 7 6 6 6 6 6 5 5 6 4 4 5 4 3 4 5 7 7 7 8 9 10 10 10 10 10 11 12 13 14
13 12 13 13 13 8 7 7 6 6 7 6 6 5 6 6 6 5 6 6 6 6 6 6 6 5 5 4 5 8 8 8 9 10 11 11 11 11 10 11 12 13 13 14
9 8 11 11 9 8 7 6 5 5 6 5 5 5 5 6 6 6 6 7 7 7 7 7 7 8 9 8 8 9 9 10 10 11 11 11 13 13 13 13 13 13 14 14
9 8 10 10 8 8 6 6 6 6 6 5 4 4 5 6 6 6 7 8 8 8 8 8 9 10 10 10 10 9 9 9 11 12 13 14 14 15 16 15 15 15 14 14
8 9 11 11 8 8 8 6 6 7 6 5 5 5 6 5 7 8 10 10 11 11 12 12 13 14 14 13 12 11 11 12 13 15 15 15 15 16 16 16 17 15 15 15

GFSCGP_con_lsi_084.txt.gz
Lid_Strength_Index
10 11 12 11 10 9 9 10 10 9 9 9 9 9 8 7 6 5 5 5 5 4 3 2 2 2 1 1 1 2 2 1 0 1 2 2 3 2 2 2 2 2 3 3
11 13 10 9 9 10 10 11 11 9 9 9 9 9 8 7 6 5 5 5 5 4 4 3 3 2 2 2 2 1 2 2 2 1 1 1 2 2 2 2 2 2 2 3
12 11 9 9 10 11 10 11 11 11 9 8 9 10 9 7 6 5 4 4 4 4 4 4 3 3 2 2 2 2 2 2 2 1 2 2 2 2 2 2 3 2 1 2
10 10 9 9 10 10 12 9 10 10 11 13 10 13 9 8 7 6 5 5 4 4 4 4 3 3 3 2 1 1 1 1 1 1 2 2 4 4 2 2 2 2 1 1
10 8 11 9 9 9 11 9 10 10 11 11 11 12 10 8 9 7 5 4 4 4 4 4 3 3 2 2 1 1 1 1 1 1 2 3 3 3 2 2 3 3 1 0
9 7 8 8 8 7 7 9 9 10 10 14 11 12 11 9 8 7 5 4 4 4 4 3 3 2 2 2 2 1 2 1 1 1 1 2 2 3 3 3 4 3 1 0
12 10 7 7 9 7 8 10 14 15 15 15 11 12 11 7 6 6 5 5 4 4 4 4 4 3 3 2 2 2 2 2 1 1 1 1 1 1 2 1 2 2 1 0
14 16 12 10 9 9 9 9 13 17 16 14 11 13 10 6 6 5 4 4 4 4 4 4 3 3 3 2 2 2 2 2 1 1 1 1 0 1 1 1 2 0 0 0
12 13 9 9 9 8 9 11 8 12 11 15 12 10 7 6 6 5 5 4 4 4 4 4 3 3 3 2 2 2 2 2 1 1 1 1 1 1 1 0 0 0 -0 -0
9 12 8 8 7 7 8 7 12 11 17 17 13 12 11 9 7 6 6 5 4 4 4 3 3 3 3 2 2 1 1 2 1 1 1 1 1 0 0 0 0 0 -0 -0
8 10 10 8 9 10 9 10 10 10 11 15 16 12 7 7 6 6 5 5 5 4 4 4 3 3 2 2 2 2 2 1 1 1 1 1 1 0 0 0 0 0 -0 -0
9 11 13 10 7 7 7 9 9 13 13 12 13 13 6 6 6 6 5 5 4 4 4 3 3 3 3 2 2 2 2 1 1 1 1 1 1 0 1 0 0 -0 0 -0
8 12 15 12 9 7 9 8 8 9 10 13 16 12 6 6 6 5 5 4 4 4 4 3 3 3 3 3 2 2 2 2 1 1 1 1 1 1 1 1 0 -0 -0 -0
7 10 13 16 14 11 12 10 9 9 13 13 12 11 8 7 6 5 5 4 4 4 4 4 4 3 3 3 2 2 2 1 1 1 1 1 1 1 1 0 0 0 -0 0
7 11 10 10 9 9 10 11 10 11 10 12 11 10 8 7 6 5 5 5 5 4 4 4 4 3 3 3 2 2 2 1 1 1 2 2 1 1 1 1 0 0 0 0
8 13 11 13 10 10 11 10 10 10 9 9 9 9 6 5 5 5 5 5 5 5 4 4 3 3 3 3 3 2 2 2 1 2 2 2 1 1 1 1 0 1 0 0
10 11 13 15 11 11 14 11 10 9 8 9 11 8 6 6 6 5 5 5 5 5 5 5 4 3 3 3 2 2 2 1 2 2 2 1 1 1 1 1 1 1 1 1
10 10 12 14 13 19 11 9 9 9 8 7 7 7 6 5 5 4 4 5 5 5 5 5 5 3 2 2 2 2 2 2 2 2 2 1 1 1 1 1 1 1 1 2
8 10 13 15 15 12 13 11 11 11 10 6 7 6 5 5 5 5 4 4 4 4 4 4 4 4 2 2 2 2 2 2 2 2 2 2 1 2 2 2 3 5 7 8
8 8 11 13 17 17 12 8 7 7 13 7 7 7 7 6 9 7 4 4 4 3 3 4 4 4 3 2 2 2 2 2 3 2 2 2 2 3 3 6 9 9 10 11
12 12 14 14 17 12 8 7 7 16 15 7 7 6 6 7 6 5 4 4 3 3 3 3 3 3 3 2 2 3 3 3 2 2 3 4 4 6 8 10 11 12 14 14
14 13 14 13 16 17 7 7 12 10 7 6 6 6 6 5 5 4 4 4 4 4 5 3 3 4 3 2 2 3 4 4 5 6 8 9 9 10 11 12 13 13 14 15
12 11 14 11 11 7 6 7 5 5 6 6 6 5 5 5 5 4 5 5 5 5 6 5 5 6 5 3 4 7 7 8 9 10 10 11 11 11 12 13 13 14 14 15
8 6 9 9 8 7 7 5 6 5 5 5 4 4 4 5 4 5 5 5 5 7 7 7 8 9 9 8 8 8 9 9 11 12 12 13 13 13 12 13 13 13 14 15
7 7 8 8 7 6 6 5 5 6 5 5 4 4 4 4 5 5 5 7 7 8 9 10 10 11 11 10 9 9 10 11 12 13 14 14 15 15 16 16 15 15 15 14
6 8 9 10 8 8 7 5 4 5 6 7 6 5 4 4 5 6 8 9 10 11 12 13 13 14 14 13 13 11 11 11 13 14 15 15 15 16 16 16 17 15 15 15

GFSCGP_con_lsi_087.txt.gz
Lid_Strength_Index
9 12 12 11 10 10 10 10 10 8 6 8 8 8 7 6 6 6 5 4 4 4 3 2 2 1 1 1 1 1 1 1 1 2 2 2 3 2 3 3 3 3 2 3
10 13 9 8 10 10 11 11 11 9 7 7 8 8 7 6 6 6 5 4 4 4 3 3 2 2 2 2 1 1 1 1 1 1 2 2 3 3 3 3 3 2 3 3
9 8 7 9 11 12 11 11 10 10 8 7 9 9 8 6 5 5 5 4 3 4 4 3 3 3 2 2 2 2 1 1 1 1 1 2 2 2 3 3 4 3 3 3
8 6 7 9 11 11 12 9 10 10 10 12 8 13 9 7 7 6 5 4 4 3 3 3 3 3 2 2 1 1 1 1 1 1 2 3 4 4 3 4 4 3 2 3
9 8 8 9 9 9 11 8 10 10 10 11 10 12 9 7 8 7 5 4 4 3 3 3 3 3 2 2 2 1 1 1 1 1 2 2 3 4 4 3 3 2 1 1
8 5 7 7 6 8 8 9 9 9 10 14 11 11 11 9 7 6 5 5 4 3 3 3 3 2 2 2 1 2 2 2 1 1 1 2 3 4 3 3 3 3 2 2
10 9 6 7 8 7 8 10 14 15 15 15 9 11 10 7 6 6 5 5 4 3 3 3 3 3 3 2 2 2 2 2 1 1 1 2 3 3 2 3 3 4 3 3
13 14 10 7 8 9 10 10 14 18 17 14 9 13 10 6 5 5 4 4 4 4 3 3 3 3 3 2 2 2 2 2 2 1 1 1 1 2 1 1 2 3 3 2
11 11 8 9 8 7 9 11 8 12 11 14 12 10 7 6 6 5 5 4 4 4 3 3 3 3 3 2 2 2 2 2 2 1 1 1 1 1 1 1 1 2 2 2
9 12 8 8 8 9 10 8 11 11 16 17 13 11 11 8 7 6 5 5 4 3 3 3 3 3 2 2 2 2 1 2 1 1 1 1 1 1 1 0 1 0 0 -0
8 10 10 8 9 10 10 11 9 10 11 15 15 12 7 7 6 6 5 5 4 4 3 3 3 3 2 2 2 2 2 2 2 1 1 1 1 1 1 1 1 0 0 0
8 10 12 10 7 6 7 9 9 13 13 11 12 12 6 6 6 5 5 5 4 4 3 3 3 3 3 2 2 2 2 2 1 1 1 1 1 1 1 1 0 0 0 -0
8 11 14 12 9 7 9 8 8 9 9 12 15 12 6 6 6 5 5 5 4 4 4 3 3 3 3 3 2 2 2 2 1 1 1 1 1 1 1 1 1 0 0 0
7 9 11 15 14 10 11 9 8 9 13 12 12 10 8 7 6 6 5 4 4 4 4 3 3 3 3 3 2 2 2 1 1 1 1 2 1 1 1 1 1 1 1 1
7 11 10 9 9 10 10 10 9 10 10 12 10 10 8 6 6 5 5 4 4 4 4 3 3 3 3 3 3 2 2 2 1 1 2 2 1 1 1 1 1 1 1 1
8 12 10 11 9 9 10 9 9 9 9 9 9 9 6 5 5 5 5 4 5 4 4 3 3 3 3 3 3 2 2 2 1 2 2 1 1 1 1 1 1 1 1 1
9 11 13 14 9 11 13 10 9 9 9 9 11 8 6 6 6 5 5 5 4 4 4 3 3 3 2 2 2 2 2 2 2 2 2 1 1 2 1 1 1 1 1 1
10 10 12 14 12 17 9 8 8 10 9 8 8 6 6 6 5 4 4 4 4 4 4 3 4 3 2 2 2 2 2 2 2 2 2 2 2 2 1 1 1 1 1 1
7 10 14 15 14 11 9 8 9 11 11 8 8 6 5 5 5 5 4 4 4 4 3 3 2 2 3 3 1 2 2 2 2 2 2 2 2 2 2 2 2 1 2 5
7 8 12 13 16 17 11 8 7 7 14 8 8 7 7 6 10 8 4 4 4 3 3 3 3 2 2 3 2 2 2 2 3 2 2 1 1 2 2 2 3 5 7 10
11 12 14 13 14 12 8 7 6 15 15 8 8 7 8 7 6 5 4 4 3 3 3 3 3 3 3 2 2 3 2 3 2 2 1 1 1 2 4 7 9 11 13 14
12 14 14 13 14 16 6 7 12 10 7 7 7 7 7 7 4 4 4 4 4 4 3 3 3 3 2 2 2 3 4 4 4 6 7 8 9 9 10 11 13 13 13 15
13 10 12 10 10 8 5 7 5 6 6 6 6 5 5 6 5 4 4 4 4 4 3 4 5 7 7 4 4 7 8 7 9 10 11 11 12 12 12 13 13 15 16 16
7 7 12 11 9 8 6 5 5 5 6 6 5 4 4 5 4 4 4 4 4 5 6 7 8 10 10 9 8 8 9 10 11 13 13 13 14 14 14 14 15 15 16 16
7 7 8 9 8 7 7 6 6 6 5 6 6 4 4 4 5 4 4 6 7 9 9 9 11 12 13 11 10 10 11 12 13 14 15 16 16 16 17 17 16 16 16 16
7 9 10 12 7 7 6 5 6 6 6 6 6 6 5 5 5 6 9 11 11 12 12 13 13 14 14 15 14 12 12 13 14 16 16 16 17 17 17 18 18 16 16 16

GFSCGP_con_lsi_090.txt.gz
Lid_Strength_Index
8 11 13 12 10 10 10 11 11 10 8 8 8 8 7 6 6 6 5 5 4 4 3 3 2 2 2 2 2 2 2 1 1 2 3 3 4 3 3 3 3 3 4 4
9 12 10 10 10 10 10 12 12 10 8 8 8 9 7 6 6 6 5 6 4 4 4 3 3 3 2 2 2 2 2 1 1 2 2 3 3 4 3 3 3 4 4 4
10 9 9 10 11 11 10 11 11 12 9 8 9 10 9 7 6 5 5 5 5 4 4 4 4 3 3 3 2 2 2 1 1 2 2 2 3 4 4 4 4 4 3 3
8 7 8 9 10 10 12 9 10 11 12 15 9 14 9 8 7 6 5 5 5 4 4 4 4 4 3 3 2 2 1 1 1 1 2 4 5 5 5 5 5 4 3 4
10 9 9 10 10 7 10 8 10 10 12 12 12 12 11 8 9 7 6 5 4 4 3 4 4 3 3 2 2 2 1 1 1 2 2 4 4 4 4 4 5 5 4 4
9 6 7 8 7 7 6 8 9 10 11 17 13 12 12 10 8 7 6 5 4 4 4 4 3 3 3 2 2 2 2 2 1 1 2 3 4 4 4 5 5 4 4 3
11 10 7 6 9 7 8 10 15 18 18 18 11 12 11 8 7 6 6 5 4 4 4 4 4 4 3 3 3 2 2 2 2 1 1 3 4 4 4 5 5 4 4 3
12 14 10 7 9 9 9 11 14 19 20 19 12 15 11 7 6 5 5 4 4 4 4 4 4 4 3 3 3 2 2 2 2 2 2 2 3 3 3 4 4 4 4 3
11 11 7 8 8 7 9 12 9 13 13 16 14 12 8 7 6 6 5 5 5 4 4 4 4 3 3 3 3 3 2 2 2 2 1 1 2 2 2 3 2 2 2 2
9 13 8 8 8 8 8 7 13 12 18 18 15 13 13 9 8 7 6 5 5 4 4 4 4 4 3 3 3 2 2 2 2 2 1 1 1 1 2 1 2 2 2 2
8 10 10 8 10 11 12 12 11 11 12 16 17 15 9 9 8 7 6 5 5 4 4 4 4 3 3 3 3 2 2 2 2 2 2 1 1 1 2 1 1 1 1 1
8 11 14 11 7 7 8 11 10 13 14 12 14 14 8 7 7 5 6 5 4 4 4 4 3 4 3 3 3 3 2 2 2 2 2 2 1 1 1 1 1 1 1 1
8 11 15 13 10 8 9 9 9 9 10 13 16 14 7 6 6 6 6 4 5 4 4 4 4 4 4 3 3 3 2 2 2 2 2 2 2 2 2 1 1 1 1 1
7 10 12 15 15 11 12 10 9 10 13 13 12 11 9 8 7 7 6 5 4 4 4 4 4 4 3 3 3 3 3 2 2 2 2 2 2 2 2 1 1 1 1 1
8 12 11 10 11 11 11 11 10 11 10 13 11 11 9 7 7 7 6 5 5 4 4 4 4 4 3 3 3 3 3 2 2 2 2 2 2 1 1 1 1 1 1 1
7 13 10 12 9 10 12 11 10 10 9 9 9 10 6 6 6 6 5 5 5 5 4 4 3 3 3 3 3 3 3 2 2 2 2 2 2 2 2 2 1 1 1 1
10 11 13 15 11 11 14 10 10 10 8 9 12 10 7 7 6 6 5 5 5 4 4 4 4 3 3 3 3 3 3 2 2 2 2 2 2 2 2 2 2 2 2 1
10 11 12 15 13 18 10 7 8 9 9 8 8 8 7 8 6 5 4 5 5 5 4 4 4 3 3 2 3 2 2 2 3 3 2 2 2 2 2 2 2 2 2 2
7 10 14 16 15 12 10 9 9 10 10 9 10 9 8 7 6 5 4 4 4 4 4 4 3 3 3 3 2 2 2 2 3 3 3 2 2 2 2 2 2 2 2 2
8 8 12 14 17 18 11 9 7 7 14 8 8 9 9 8 11 9 5 4 4 4 3 4 3 3 3 3 2 3 3 3 3 3 2 2 2 2 2 2 3 6 9 12
12 12 15 15 16 12 8 8 8 15 14 8 7 8 8 10 8 6 5 4 4 4 3 3 3 4 3 2 2 3 3 4 3 2 3 4 5 5 7 9 10 11 13 14
13 14 15 14 15 17 7 8 13 9 7 6 6 7 7 7 6 5 5 5 4 4 4 4 4 5 5 4 3 6 7 7 7 9 10 10 10 10 11 13 13 14 15 16
14 10 13 11 12 8 7 8 5 5 6 7 7 7 6 6 6 5 6 5 5 5 6 6 8 9 9 8 7 8 9 10 11 12 12 12 12 13 13 13 14 15 16 17
9 7 11 11 8 8 7 6 6 5 6 7 7 7 6 6 5 5 6 7 8 9 10 10 10 12 12 11 11 11 11 11 12 13 15 14 15 15 15 15 15 16 16 17
9 9 10 10 8 8 7 6 6 6 6 7 7 7 7 6 7 9 10 11 11 11 12 12 12 13 13 12 13 12 12 13 14 15 15 16 17 17 17 17 17 17 17 17
8 10 11 13 8 8 8 8 7 7 7 7 8 8 6 8 9 10 12 13 13 14 13 13 13 14 14 14 14 14 14 14 15 16 16 17 17 17 17 18 18 16 17 17

GFSCGP_con_lsi_093.txt.gz
Lid_Strength_Index
10 14 16 13 12 11 11 12 12 11 10 10 11 11 10 7 8 9 9 8 8 7 5 4 3 3 3 3 4 4 3 1 1 2 2 3 3 3 3 2 2 1 1 1
12 14 11 10 11 12 12 13 13 11 10 10 11 11 10 8 8 8 8 9 8 7 5 4 4 4 4 4 4 4 3 1 1 1 2 3 3 3 3 3 3 2 2 2
12 10 8 10 11 12 13 13 12 12 11 10 11 12 11 9 8 7 7 7 8 7 5 5 4 4 4 4 4 4 2 1 1 1 2 3 3 3 4 4 4 3 3 3
9 7 8 9 12 11 14 11 11 11 12 16 10 18 12 10 10 7 7 7 7 8 5 5 4 4 4 4 4 3 2 1 1 2 3 4 5 5 4 4 4 4 4 4
11 9 10 10 10 9 11 10 11 10 13 14 13 16 14 10 10 9 8 7 7 8 5 5 5 4 4 4 4 4 1 1 1 2 3 3 5 5 4 4 5 5 4 4
10 8 9 9 8 8 8 9 9 11 12 19 14 15 15 12 10 9 7 7 7 7 5 5 4 3 4 4 4 3 2 2 1 2 3 4 5 5 5 5 5 5 4 4
12 11 9 8 11 8 9 11 17 19 19 19 12 14 14 10 8 8 8 7 7 6 5 5 5 4 4 5 4 3 2 2 2 2 3 4 4 4 5 5 5 5 5 5
15 16 12 10 11 11 10 11 17 21 21 19 12 17 14 8 7 7 7 7 7 7 5 5 5 4 4 4 4 4 3 3 2 2 2 3 3 4 4 5 4 5 5 5
13 13 8 9 9 8 11 13 9 14 13 17 15 12 10 8 8 7 8 8 8 6 5 5 5 4 4 4 4 4 3 2 2 2 2 3 3 3 4 4 5 4 4 4
10 14 9 8 8 8 10 8 14 14 19 20 16 15 15 11 9 8 8 8 8 6 5 5 4 4 4 4 4 4 4 2 2 2 1 2 3 3 3 3 4 3 3 3
10 12 12 8 12 12 12 12 11 12 14 19 18 15 9 9 9 8 7 7 7 7 6 6 4 4 4 4 4 4 4 2 2 2 2 1 2 2 2 3 3 2 2 2
10 12 15 12 8 8 10 11 12 15 16 14 14 15 8 9 8 7 8 7 6 6 6 6 4 4 4 4 4 4 4 3 2 2 2 2 1 2 2 3 2 2 2 2
10 12 16 14 11 10 11 10 10 11 12 15 17 15 8 9 8 7 7 7 6 6 6 6 4 4 4 4 4 4 4 3 2 2 2 2 2 2 2 2 2 2 2 3
7 11 13 17 14 12 13 12 10 11 15 14 14 13 10 9 8 8 7 6 7 6 5 6 5 4 4 4 4 4 4 3 2 2 2 2 2 2 1 2 2 2 2 2
9 13 11 11 10 11 12 12 12 13 12 15 13 12 10 9 9 8 7 7 7 6 5 5 6 5 4 4 4 4 4 4 3 2 2 2 2 1 1 1 1 2 2 2
8 14 12 13 10 10 12 11 11 11 11 12 11 12 8 7 6 7 7 7 7 6 5 5 5 5 4 4 4 3 4 4 3 3 3 2 2 2 2 2 2 1 1 2
11 12 14 16 12 12 15 11 11 11 10 11 13 11 9 9 9 8 7 7 6 5 5 5 5 4 5 5 3 3 3 3 3 4 3 2 2 2 2 2 2 2 2 1
11 12 13 17 14 20 12 8 8 10 11 10 10 10 9 9 7 7 6 6 6 6 5 5 4 4 4 4 5 5 3 3 4 3 4 3 2 3 2 2 2 2 2 2
8 11 15 17 17 14 11 11 12 13 13 9 10 9 8 8 7 8 6 5 5 5 5 4 4 4 4 4 3 3 4 3 4 4 3 3 3 2 2 3 2 2 2 2
8 9 13 15 18 19 13 10 8 8 16 9 9 9 9 8 12 10 6 5 5 6 5 5 6 6 7 6 4 4 5 6 4 3 3 3 3 3 3 3 4 9 9 12
13 13 15 16 17 14 10 9 7 16 15 8 8 8 8 9 8 6 5 5 6 7 7 7 7 8 8 8 5 7 7 8 9 10 4 4 4 3 5 8 10 12 14 15
14 15 16 15 17 18 8 9 13 10 8 8 8 7 7 7 6 6 5 8 8 9 9 9 9 10 9 10 8 9 10 9 9 11 11 11 10 10 11 12 13 13 15 16
15 12 14 13 13 9 7 8 6 7 9 9 8 7 7 7 8 9 9 9 11 11 11 10 11 11 10 10 11 12 12 12 12 13 14 14 13 12 12 14 15 16 16 17
10 8 11 11 10 9 7 6 6 7 7 7 7 7 8 9 10 11 11 12 12 12 12 11 11 11 12 11 11 13 13 13 14 16 16 16 16 16 16 15 15 16 17 17
10 9 11 11 9 8 8 8 8 8 7 7 7 8 9 11 11 12 13 14 14 14 13 13 13 14 14 12 12 13 13 14 15 16 17 18 17 18 18 18 18 18 17 16
8 11 12 13 11 9 10 9 8 9 9 8 9 10 11 11 13 13 15 15 15 15 15 15 15 15 15 14 14 13 13 14 15 17 17 17 18 18 18 19 19 17 17 17

GFSCGP_con_lsi_096.txt.gz
Lid_Strength_Index
11 15 17 14 11 11 11 12 14 13 10 11 12 12 11 10 8 9 8 9 9 9 6 3 3 3 3 4 4 4 4 3 2 1 3 2 3 3 3 2 0 0 0 1
13 16 13 11 11 12 13 14 14 12 10 11 12 12 10 9 9 9 9 8 9 10 5 4 4 4 4 4 4 4 4 3 2 1 2 2 3 3 2 3 2 0 0 1
14 11 10 11 12 13 14 15 14 14 11 10 11 12 11 9 8 7 7 7 8 8 6 5 5 4 4 5 5 4 4 3 2 1 2 3 3 4 4 4 3 2 1 1
10 9 11 11 12 12 15 11 12 13 14 16 11 16 12 10 9 8 7 7 8 9 5 5 5 5 5 5 4 4 3 3 2 2 3 4 4 5 4 4 4 3 1 1
12 10 10 11 10 10 13 10 12 13 13 14 14 16 14 10 10 9 8 7 7 8 5 5 5 5 5 5 5 4 3 3 2 2 3 3 4 4 4 4 4 3 3 3
11 9 11 10 9 9 8 10 10 11 13 18 15 15 14 13 10 9 8 7 7 9 5 5 4 4 5 5 5 4 3 3 2 2 3 3 4 4 5 5 5 4 4 4
12 11 10 9 12 10 10 13 17 19 19 19 13 15 13 10 9 8 8 7 7 6 5 5 5 5 5 5 5 4 4 4 2 2 3 4 4 5 5 5 5 5 5 5
16 16 11 10 11 12 12 12 17 21 21 18 13 18 14 8 8 7 7 6 6 6 5 5 5 5 5 5 5 4 4 3 2 2 3 4 5 4 5 4 5 5 5 4
14 15 10 9 9 9 12 13 10 15 15 18 16 13 10 8 8 8 7 7 8 7 5 5 5 4 5 5 5 5 4 2 2 2 2 3 4 4 4 5 4 5 5 4
11 15 9 8 10 10 10 9 15 14 20 21 16 15 14 11 11 9 8 7 7 6 6 5 5 4 4 5 5 4 4 3 2 2 2 3 3 4 3 4 5 4 5 4
10 13 12 10 12 13 12 13 11 12 15 19 20 16 11 11 10 10 8 7 7 6 6 5 5 4 4 4 5 5 4 3 2 2 2 2 3 3 3 4 4 4 3 4
10 12 15 13 9 8 10 12 11 16 17 15 16 15 8 9 9 8 8 7 6 5 6 5 5 4 4 5 5 5 5 4 3 2 2 2 2 2 3 3 3 3 3 2
10 12 16 14 12 10 13 11 10 11 13 16 18 15 8 8 8 8 8 7 6 6 6 6 5 5 4 5 5 5 5 4 3 2 2 2 2 2 3 3 3 3 2 3
9 12 14 17 14 12 14 13 11 12 17 16 15 13 10 9 8 8 8 7 7 7 6 5 5 5 4 5 5 5 5 4 4 3 2 2 2 2 2 2 3 3 3 3
9 14 12 12 11 11 12 12 12 13 12 16 14 13 10 10 9 8 7 6 7 6 6 6 6 5 4 4 4 4 5 4 4 4 2 2 2 1 1 1 2 2 3 3
9 14 12 14 11 11 12 11 11 11 12 12 11 12 9 8 7 8 8 7 7 6 6 5 6 5 5 4 4 4 5 5 4 5 4 3 2 2 2 2 1 2 2 2
11 13 14 17 13 13 15 12 11 11 12 12 14 12 9 9 9 9 8 7 7 6 6 6 6 7 7 5 3 4 4 4 4 4 4 4 3 2 2 2 2 2 2 2
11 12 13 16 14 20 12 9 10 12 11 10 10 10 9 9 8 7 6 7 7 6 6 6 7 7 7 7 6 5 3 3 4 4 4 4 4 4 3 2 2 2 2 2
9 12 15 17 18 14 12 11 12 12 13 9 10 9 8 7 7 8 6 6 8 8 7 8 8 8 8 7 7 6 7 5 3 4 3 3 4 4 4 3 2 2 2 2
9 10 13 15 18 20 14 10 7 8 16 9 9 9 9 8 12 10 6 6 8 8 8 8 9 9 9 9 8 8 8 9 9 8 8 5 2 3 4 3 3 3 3 4
14 13 15 16 17 14 10 9 8 16 15 8 8 8 8 10 9 8 8 9 9 10 10 9 9 10 10 10 9 10 10 10 9 9 10 8 7 5 4 3 6 10 11 12
14 15 16 15 17 18 8 9 13 10 8 8 8 7 7 7 7 8 10 10 11 11 11 10 11 12 11 11 10 11 12 11 11 11 12 13 13 10 10 11 12 13 14 16
15 12 14 13 13 9 7 8 6 8 9 10 9 9 8 9 9 10 11 12 13 13 13 12 12 12 12 12 12 13 13 13 13 14 15 15 15 15 14 13 14 15 15 16
10 8 12 12 10 9 8 7 7 7 9 9 9 9 9 11 11 12 13 13 14 14 14 13 13 14 13 13 13 13 13 13 14 15 15 16 17 17 17 17 16 16 17 17
10 9 11 11 10 9 10 9 8 9 8 9 10 10 11 11 12 13 14 15 15 15 15 15 15 15 14 13 13 12 13 13 15 16 16 16 17 17 18 18 17 18 17 17
9 11 12 14 11 10 11 10 9 10 10 10 11 12 12 12 13 14 15 15 16 16 16 16 16 16 15 14 14 13 14 14 15 16 17 17 17 17 17 18 18 16 16 16

GFSCGP_con_lsi_099.txt.gz
Lid_Strength_Index
13 16 17 15 12 11 12 14 14 14 11 12 12 12 11 11 10 10 10 9 9 9 7 6 3 3 3 3 3 4 4 3 2 3 2 2 2 2 2 0 0 0 -0 1
15 17 14 12 11 13 14 15 15 13 11 11 12 13 12 11 10 9 9 9 9 9 6 5 4 3 3 3 4 4 4 3 3 2 2 3 2 3 2 2 1 0 0 1
15 14 12 12 14 14 15 16 16 14 13 13 14 14 13 10 9 8 8 8 7 8 7 5 5 4 3 4 4 4 3 3 3 3 3 3 2 3 3 4 3 2 -0 1
13 11 12 13 14 13 16 13 13 14 16 19 13 19 14 12 10 9 8 7 7 8 7 5 5 4 4 3 4 4 4 4 4 3 3 3 3 4 4 3 3 3 2 1
13 11 12 13 13 12 14 11 12 13 16 17 16 16 16 11 12 10 8 8 7 6 8 5 5 4 3 4 4 4 4 4 4 3 3 3 3 3 3 4 3 3 2 1
12 11 11 10 9 9 9 12 12 13 15 18 15 15 16 14 11 10 8 7 6 7 8 5 4 4 4 4 5 4 4 4 4 3 3 4 3 4 4 4 4 3 3 2
14 13 11 10 13 11 11 14 17 19 20 19 13 15 14 11 8 9 8 7 6 6 8 5 5 5 4 5 5 4 4 4 4 4 3 3 4 3 4 4 4 4 4 4
16 17 12 10 12 13 13 13 17 20 20 17 13 18 14 9 8 7 7 6 6 6 6 5 5 5 4 5 5 4 4 4 4 3 3 3 4 4 4 4 4 4 4 4
15 15 11 10 10 10 12 14 11 15 16 18 16 14 11 9 9 8 8 7 7 6 5 5 5 5 4 4 5 5 5 4 4 3 3 4 4 4 4 4 4 4 4 4
12 15 10 9 10 10 11 10 15 15 20 20 17 16 15 13 12 9 9 8 7 6 6 5 5 5 4 4 5 4 4 4 4 3 3 4 4 4 4 4 4 5 4 4
10 12 12 10 12 14 13 13 12 12 15 18 19 17 12 12 10 10 9 8 7 7 6 6 5 4 4 4 5 5 4 4 4 2 3 4 4 4 4 4 4 4 4 4
10 13 15 13 10 9 12 12 12 16 17 16 17 16 9 9 9 8 8 8 7 6 7 6 5 4 4 4 5 5 4 4 3 2 2 3 3 4 4 4 4 4 4 4
10 14 17 16 13 10 13 11 11 12 13 16 18 16 8 8 8 8 8 8 7 6 6 6 5 5 5 4 5 5 5 4 4 3 2 3 3 3 4 4 4 3 3 4
8 13 15 17 15 12 14 12 12 12 17 16 15 14 11 10 10 8 8 7 7 6 6 6 5 5 4 4 5 5 5 5 4 4 2 2 3 3 3 3 3 3 3 3
10 15 13 12 11 12 12 12 12 13 13 15 14 13 11 10 9 8 7 7 7 7 6 6 6 5 5 5 5 5 5 5 4 4 4 2 2 2 3 2 2 2 3 3
9 14 12 14 12 12 13 11 12 12 11 12 12 12 9 8 8 8 8 7 7 7 7 7 8 8 5 5 5 5 5 4 4 5 4 4 3 2 2 2 2 2 3 3
11 13 14 16 13 13 15 12 11 13 12 12 15 12 9 9 9 9 8 7 7 7 8 8 8 9 9 8 6 5 4 3 3 4 4 4 4 4 2 2 2 2 2 3
11 12 13 16 14 20 12 10 10 12 11 10 10 10 9 9 8 7 6 7 7 8 8 9 9 9 9 8 8 7 4 3 4 4 4 3 3 4 4 2 2 2 2 3
9 11 15 17 18 14 13 11 12 13 13 9 10 9 8 8 7 8 8 7 9 9 8 8 9 9 9 8 8 8 8 7 4 5 4 3 3 3 3 4 3 2 2 3
9 10 13 15 18 20 14 10 8 9 16 9 9 9 9 8 12 10 8 9 9 10 10 9 10 11 11 10 9 9 9 10 10 9 9 8 6 3 3 3 3 3 3 3
14 14 15 16 17 14 10 9 8 16 14 8 8 8 8 9 8 8 8 10 10 11 11 11 12 12 12 11 10 12 12 12 11 10 11 11 11 9 8 3 3 3 4 10
14 15 16 15 17 18 8 9 12 10 8 8 8 8 8 8 8 9 10 11 12 13 13 12 12 13 13 13 12 14 14 13 13 13 13 13 13 12 12 12 11 12 12 14
15 12 14 13 14 9 8 9 7 7 9 9 9 9 9 11 10 10 11 12 13 14 14 13 13 13 13 13 13 14 14 14 14 14 14 14 14 14 15 14 15 16 15 16
11 9 12 12 10 9 8 8 9 8 9 9 10 11 11 12 11 12 13 14 15 15 15 15 15 15 14 13 13 14 14 14 15 15 15 16 16 16 15 15 15 16 17 18
10 9 11 11 11 10 10 10 10 9 10 11 11 12 12 12 13 13 14 15 16 16 15 15 15 16 15 14 14 14 14 14 15 16 16 16 16 16 16 16 16 17 16 15
10 12 13 15 11 10 11 10 10 11 12 12 12 13 13 13 14 14 15 15 16 16 16 16 16 16 16 15 15 15 15 16 16 16 16 16 16 16 16 16 17 15 15 15